| time (UTC) | temp F | wind direction | speed MPH | gust MPH | rain 1hr in | rain 24hr in | rain mn in | humidity % | barometer mb |
| 20260902154740 | 74 | 209 | 15.0 | 21.0 | 0.00 | 0.00 | 0.00 | 31 | 1016.8 |
| 20260902154233 | 74 | 182 | 12.0 | 20.0 | 0.00 | 0.00 | 0.00 | 31 | 1016.8 |
| 20260902153747 | 74 | 196 | 14.0 | 20.0 | 0.00 | 0.00 | 0.00 | 31 | 1016.8 |
| 20260902153240 | 74 | 200 | 12.0 | 20.0 | 0.00 | 0.00 | 0.00 | 31 | 1016.9 |
| 20260902152734 | 73 | 186 | 12.0 | 18.0 | 0.00 | 0.00 | 0.00 | 31 | 1016.9 |
| 20260902152227 | 73 | 189 | 9.0 | 18.0 | 0.00 | 0.00 | 0.00 | 32 | 1016.9 |
| 20260902151741 | 73 | 159 | 11.0 | 18.0 | 0.00 | 0.00 | 0.00 | 32 | 1016.9 |
| 20260902151254 | 73 | 214 | 12.0 | 19.0 | 0.00 | 0.00 | 0.00 | 32 | 1016.9 |
| 20260902150727 | 73 | 189 | 9.0 | 19.0 | 0.00 | 0.00 | 0.00 | 32 | 1016.8 |
| 20260902150226 | 73 | 184 | 7.0 | 19.0 | 0.00 | 0.00 | 0.00 | 32 | 1016.8 |
| 20260902145720 | 73 | 182 | 9.0 | 18.0 | 0.00 | 0.00 | 0.00 | 32 | 1016.8 |
| 20260902145214 | 72 | 189 | 10.0 | 18.0 | 0.00 | 0.00 | 0.00 | 32 | 1016.7 |
| 20260902144728 | 72 | 180 | 7.0 | 17.0 | 0.00 | 0.00 | 0.00 | 33 | 1016.7 |
| 20260902144242 | 72 | 182 | 10.0 | 17.0 | 0.00 | 0.00 | 0.00 | 33 | 1016.6 |
| 20260902143715 | 71 | 209 | 10.0 | 13.0 | 0.00 | 0.00 | 0.00 | 33 | 1016.7 |
| 20260902143250 | 71 | 208 | 7.0 | 12.0 | 0.00 | 0.00 | 0.00 | 34 | 1016.7 |
| 20260902142743 | 70 | 130 | 7.0 | 12.0 | 0.00 | 0.00 | 0.00 | 35 | 1016.6 |
| 20260902142216 | 70 | 205 | 6.0 | 11.0 | 0.00 | 0.00 | 0.00 | 35 | 1016.5 |
| 20260902141714 | 70 | 192 | 7.0 | 16.0 | 0.00 | 0.00 | 0.00 | 36 | 1016.6 |
| 20260902141226 | 70 | 190 | 8.0 | 16.0 | 0.00 | 0.00 | 0.00 | 35 | 1016.6 |
| 20260902140740 | 69 | 197 | 7.0 | 17.0 | 0.00 | 0.00 | 0.00 | 35 | 1016.6 |
| 20260902140232 | 69 | 204 | 7.0 | 17.0 | 0.00 | 0.00 | 0.00 | 35 | 1016.5 |
| 20260902135726 | 69 | 136 | 10.0 | 17.0 | 0.00 | 0.00 | 0.00 | 36 | 1016.4 |
| 20260902135219 | 69 | 190 | 8.0 | 14.0 | 0.00 | 0.00 | 0.00 | 36 | 1016.4 |
| 20260902134714 | 69 | 179 | 8.0 | 18.0 | 0.00 | 0.00 | 0.00 | 36 | 1016.2 |
| 20260902134227 | 69 | 203 | 8.0 | 18.0 | 0.00 | 0.00 | 0.00 | 36 | 1016.3 |
| 20260902133721 | 69 | 197 | 8.0 | 17.0 | 0.00 | 0.00 | 0.00 | 36 | 1016.4 |
| 20260902133217 | 69 | 185 | 10.0 | 17.0 | 0.00 | 0.00 | 0.00 | 36 | 1016.3 |
| 20260902132730 | 69 | 180 | 10.0 | 18.0 | 0.00 | 0.00 | 0.00 | 36 | 1016.2 |
| 20260902132224 | 69 | 180 | 8.0 | 18.0 | 0.00 | 0.00 | 0.00 | 36 | 1016.3 |
| 20260902131716 | 69 | 200 | 9.0 | 16.0 | 0.00 | 0.00 | 0.00 | 36 | 1016.4 |
| 20260902131248 | 69 | 196 | 10.0 | 21.0 | 0.00 | 0.00 | 0.00 | 36 | 1016.3 |
| 20260902130741 | 69 | 195 | 11.0 | 20.0 | 0.00 | 0.00 | 0.00 | 36 | 1016.3 |
| 20260902130254 | 69 | 172 | 8.0 | 23.0 | 0.00 | 0.00 | 0.00 | 36 | 1016.3 |
| 20260902125726 | 69 | 186 | 11.0 | 23.0 | 0.00 | 0.00 | 0.00 | 35 | 1016.2 |
| 20260902125220 | 69 | 192 | 9.0 | 18.0 | 0.00 | 0.00 | 0.00 | 36 | 1016.1 |
| 20260902124714 | 69 | 126 | 10.0 | 20.0 | 0.00 | 0.00 | 0.00 | 35 | 1016.2 |
| 20260902124227 | 69 | 198 | 9.0 | 20.0 | 0.00 | 0.00 | 0.00 | 35 | 1016.1 |
| 20260902123725 | 69 | 217 | 10.0 | 20.0 | 0.00 | 0.00 | 0.00 | 34 | 1016.1 |
| 20260902123218 | 69 | 186 | 10.0 | 22.0 | 0.00 | 0.00 | 0.00 | 34 | 1016.0 |
| 20260902122732 | 69 | 178 | 9.0 | 17.0 | 0.00 | 0.00 | 0.00 | 35 | 1016.0 |
| 20260902122223 | 68 | 169 | 9.0 | 17.0 | 0.00 | 0.00 | 0.00 | 36 | 1016.0 |
| 20260902121717 | 68 | 190 | 10.0 | 17.0 | 0.00 | 0.00 | 0.00 | 36 | 1016.0 |
| 20260902121249 | 68 | 188 | 10.0 | 15.0 | 0.00 | 0.00 | 0.00 | 36 | 1016.1 |
| 20260902120722 | 68 | 202 | 9.0 | 20.0 | 0.00 | 0.00 | 0.00 | 36 | 1016.1 |
| 20260902120217 | 69 | 183 | 10.0 | 20.0 | 0.00 | 0.00 | 0.00 | 35 | 1016.1 |
| 20260902115715 | 69 | 205 | 10.0 | 18.0 | 0.00 | 0.00 | 0.00 | 34 | 1016.0 |
| 20260902115229 | 69 | 207 | 11.0 | 20.0 | 0.00 | 0.00 | 0.00 | 34 | 1016.0 |
| 20260902114723 | 69 | 188 | 12.0 | 22.0 | 0.00 | 0.00 | 0.00 | 34 | 1016.0 |
| 20260902114217 | 69 | 186 | 12.0 | 22.0 | 0.00 | 0.00 | 0.00 | 35 | 1016.0 |
| 20260902113731 | 69 | 191 | 11.0 | 20.0 | 0.00 | 0.00 | 0.00 | 35 | 1016.0 |
| 20260902113225 | 69 | 187 | 10.0 | 20.0 | 0.00 | 0.00 | 0.00 | 35 | 1016.0 |
| 20260902112718 | 69 | 182 | 9.0 | 15.0 | 0.00 | 0.00 | 0.00 | 35 | 1016.1 |
| 20260902112233 | 69 | 180 | 9.0 | 18.0 | 0.00 | 0.00 | 0.00 | 34 | 1016.1 |
| 20260902111730 | 69 | 190 | 8.0 | 18.0 | 0.00 | 0.00 | 0.00 | 34 | 1016.1 |
| 20260902111224 | 69 | 195 | 10.0 | 19.0 | 0.00 | 0.00 | 0.00 | 33 | 1016.1 |
| 20260902110718 | 70 | 165 | 10.0 | 18.0 | 0.00 | 0.00 | 0.00 | 33 | 1016.0 |
| 20260902110214 | 69 | 192 | 9.0 | 17.0 | 0.00 | 0.00 | 0.00 | 33 | 1016.0 |
| 20260902105727 | 70 | 182 | 10.0 | 16.0 | 0.00 | 0.00 | 0.00 | 32 | 1016.0 |
| 20260902105221 | 70 | 186 | 8.0 | 18.0 | 0.00 | 0.00 | 0.00 | 32 | 1016.0 |
| 20260902104735 | 70 | 191 | 11.0 | 20.0 | 0.00 | 0.00 | 0.00 | 32 | 1015.9 |
| 20260902104228 | 71 | 195 | 9.0 | 20.0 | 0.00 | 0.00 | 0.00 | 31 | 1015.8 |
| 20260902103726 | 71 | 182 | 11.0 | 17.0 | 0.00 | 0.00 | 0.00 | 31 | 1015.8 |
| 20260902103220 | 71 | 161 | 10.0 | 19.0 | 0.00 | 0.00 | 0.00 | 31 | 1015.8 |
| 20260902102733 | 71 | 167 | 10.0 | 20.0 | 0.00 | 0.00 | 0.00 | 31 | 1015.8 |
| 20260902102227 | 71 | 171 | 10.0 | 21.0 | 0.00 | 0.00 | 0.00 | 31 | 1015.9 |
| 20260902101721 | 71 | 219 | 11.0 | 21.0 | 0.00 | 0.00 | 0.00 | 31 | 1015.9 |
| 20260902101215 | 71 | 189 | 10.0 | 21.0 | 0.00 | 0.00 | 0.00 | 31 | 1015.9 |
| 20260902100729 | 71 | 195 | 11.0 | 19.0 | 0.00 | 0.00 | 0.00 | 31 | 1015.9 |
| 20260902100223 | 71 | 194 | 10.0 | 21.0 | 0.00 | 0.00 | 0.00 | 31 | 1015.9 |
| 20260902095736 | 71 | 151 | 10.0 | 21.0 | 0.00 | 0.00 | 0.00 | 31 | 1015.9 |
| 20260902095213 | 71 | 177 | 9.0 | 20.0 | 0.00 | 0.00 | 0.00 | 31 | 1015.9 |
| 20260902094747 | 71 | 185 | 9.0 | 21.0 | 0.00 | 0.00 | 0.00 | 30 | 1015.9 |
| 20260902094221 | 71 | 176 | 13.0 | 21.0 | 0.00 | 0.00 | 0.00 | 30 | 1015.9 |
| 20260902093715 | 71 | 178 | 9.0 | 16.0 | 0.00 | 0.00 | 0.00 | 30 | 1015.9 |
| 20260902093229 | 71 | 169 | 9.0 | 19.0 | 0.00 | 0.00 | 0.00 | 30 | 1015.9 |
| 20260902092723 | 71 | 149 | 10.0 | 16.0 | 0.00 | 0.00 | 0.00 | 30 | 1015.9 |
| 20260902092217 | 71 | 200 | 10.0 | 16.0 | 0.00 | 0.00 | 0.00 | 30 | 1015.9 |
| 20260902091731 | 71 | 178 | 11.0 | 20.0 | 0.00 | 0.00 | 0.00 | 30 | 1016.0 |
| 20260902091245 | 72 | 210 | 11.0 | 22.0 | 0.00 | 0.00 | 0.00 | 30 | 1015.9 |
| 20260902090722 | 72 | 190 | 11.0 | 24.0 | 0.00 | 0.00 | 0.00 | 29 | 1015.9 |
| 20260902090217 | 72 | 201 | 8.0 | 24.0 | 0.00 | 0.00 | 0.00 | 29 | 1016.0 |
| 20260902085731 | 72 | 187 | 12.0 | 25.0 | 0.00 | 0.00 | 0.00 | 29 | 1016.0 |
| 20260902085225 | 72 | 163 | 13.0 | 25.0 | 0.00 | 0.00 | 0.00 | 29 | 1016.0 |
| 20260902084719 | 72 | 159 | 10.0 | 18.0 | 0.00 | 0.00 | 0.00 | 29 | 1016.0 |
| 20260902084233 | 72 | 174 | 8.0 | 16.0 | 0.00 | 0.00 | 0.00 | 29 | 1016.0 |
| 20260902083727 | 72 | 182 | 10.0 | 18.0 | 0.00 | 0.00 | 0.00 | 29 | 1016.0 |
| 20260902083225 | 72 | 194 | 10.0 | 18.0 | 0.00 | 0.00 | 0.00 | 29 | 1016.1 |
| 20260902082718 | 72 | 171 | 10.0 | 19.0 | 0.00 | 0.00 | 0.00 | 29 | 1016.2 |
| 20260902082232 | 72 | 185 | 9.0 | 19.0 | 0.00 | 0.00 | 0.00 | 29 | 1016.1 |
| 20260902081747 | 72 | 202 | 9.0 | 19.0 | 0.00 | 0.00 | 0.00 | 29 | 1016.2 |
| 20260902081219 | 72 | 191 | 9.0 | 15.0 | 0.00 | 0.00 | 0.00 | 29 | 1016.1 |
| 20260902080713 | 71 | 170 | 9.0 | 16.0 | 0.00 | 0.00 | 0.00 | 29 | 1016.1 |
| 20260902080229 | 71 | 199 | 8.0 | 18.0 | 0.00 | 0.00 | 0.00 | 30 | 1016.1 |
| 20260902075722 | 71 | 149 | 10.0 | 18.0 | 0.00 | 0.00 | 0.00 | 29 | 1016.1 |
| 20260902075221 | 71 | 186 | 8.0 | 19.0 | 0.00 | 0.00 | 0.00 | 29 | 1016.1 |
| 20260902074714 | 71 | 150 | 7.0 | 14.0 | 0.00 | 0.00 | 0.00 | 29 | 1016.1 |
| 20260902074249 | 71 | 162 | 8.0 | 14.0 | 0.00 | 0.00 | 0.00 | 30 | 1016.0 |
| 20260902073722 | 71 | 182 | 6.0 | 13.0 | 0.00 | 0.00 | 0.00 | 29 | 1016.1 |
| 20260902073216 | 70 | 165 | 6.0 | 14.0 | 0.00 | 0.00 | 0.00 | 30 | 1016.1 |
| 20260902072731 | 70 | 183 | 9.0 | 14.0 | 0.00 | 0.00 | 0.00 | 29 | 1016.0 |
| 20260902072245 | 70 | 163 | 7.0 | 13.0 | 0.00 | 0.00 | 0.00 | 29 | 1016.1 |
| 20260902071718 | 71 | 197 | 6.0 | 13.0 | 0.00 | 0.00 | 0.00 | 29 | 1016.1 |
| 20260902071232 | 71 | 198 | 9.0 | 15.0 | 0.00 | 0.00 | 0.00 | 28 | 1016.1 |
| 20260902070730 | 71 | 145 | 8.0 | 15.0 | 0.00 | 0.00 | 0.00 | 27 | 1016.1 |
| 20260902070225 | 72 | 169 | 8.0 | 18.0 | 0.00 | 0.00 | 0.00 | 27 | 1016.2 |
| 20260902065719 | 72 | 171 | 8.0 | 18.0 | 0.00 | 0.00 | 0.00 | 27 | 1016.2 |
| 20260902065232 | 71 | 160 | 8.0 | 15.0 | 0.00 | 0.00 | 0.00 | 27 | 1016.3 |
| 20260902064746 | 71 | 187 | 6.0 | 11.0 | 0.00 | 0.00 | 0.00 | 27 | 1016.2 |
| 20260902064239 | 70 | 186 | 7.0 | 12.0 | 0.00 | 0.00 | 0.00 | 27 | 1016.2 |
| 20260902063732 | 71 | 191 | 7.0 | 12.0 | 0.00 | 0.00 | 0.00 | 27 | 1016.2 |
| 20260902063226 | 71 | 154 | 8.0 | 12.0 | 0.00 | 0.00 | 0.00 | 27 | 1016.2 |
| 20260902062719 | 71 | 159 | 8.0 | 12.0 | 0.00 | 0.00 | 0.00 | 26 | 1016.3 |
| 20260902062217 | 71 | 178 | 7.0 | 12.0 | 0.00 | 0.00 | 0.00 | 27 | 1016.2 |
| 20260902061751 | 71 | 185 | 9.0 | 13.0 | 0.00 | 0.00 | 0.00 | 28 | 1016.2 |
| 20260902061304 | 71 | 188 | 8.0 | 13.0 | 0.00 | 0.00 | 0.00 | 28 | 1016.2 |
| 20260902060716 | 71 | 192 | 8.0 | 13.0 | 0.00 | 0.00 | 0.00 | 28 | 1016.2 |
| 20260902060232 | 71 | 193 | 8.0 | 18.0 | 0.00 | 0.00 | 0.00 | 27 | 1016.2 |
| 20260902055725 | 71 | 203 | 9.0 | 18.0 | 0.00 | 0.00 | 0.00 | 27 | 1016.3 |
| 20260902055223 | 71 | 188 | 7.0 | 17.0 | 0.00 | 0.00 | 0.00 | 27 | 1016.3 |
| 20260902054717 | 71 | 200 | 8.0 | 17.0 | 0.00 | 0.00 | 0.00 | 27 | 1016.3 |
| 20260902054231 | 71 | 198 | 11.0 | 19.0 | 0.00 | 0.00 | 0.00 | 27 | 1016.4 |
| 20260902053724 | 72 | 169 | 9.0 | 19.0 | 0.00 | 0.00 | 0.00 | 27 | 1016.4 |
| 20260902053218 | 72 | 187 | 11.0 | 23.0 | 0.00 | 0.00 | 0.00 | 26 | 1016.3 |
| 20260902052731 | 72 | 157 | 10.0 | 23.0 | 0.00 | 0.00 | 0.00 | 27 | 1016.4 |
| 20260902052226 | 72 | 142 | 10.0 | 23.0 | 0.00 | 0.00 | 0.00 | 27 | 1016.4 |
| 20260902051719 | 72 | 190 | 10.0 | 16.0 | 0.00 | 0.00 | 0.00 | 27 | 1016.4 |
| 20260902051218 | 71 | 186 | 8.0 | 16.0 | 0.00 | 0.00 | 0.00 | 28 | 1016.4 |
| 20260902050731 | 71 | 182 | 7.0 | 16.0 | 0.00 | 0.00 | 0.00 | 27 | 1016.5 |
| 20260902050247 | 72 | 188 | 9.0 | 18.0 | 0.00 | 0.00 | 0.00 | 28 | 1016.4 |
| 20260902045719 | 72 | 165 | 9.0 | 19.0 | 0.00 | 0.00 | 0.00 | 27 | 1016.4 |
| 20260902045214 | 72 | 208 | 10.0 | 19.0 | 0.00 | 0.00 | 0.00 | 27 | 1016.4 |
| 20260902044727 | 72 | 158 | 9.0 | 18.0 | 0.00 | 0.00 | 0.00 | 27 | 1016.4 |
| 20260902044222 | 72 | 179 | 10.0 | 25.0 | 0.00 | 0.00 | 0.00 | 27 | 1016.4 |
| 20260902043715 | 72 | 179 | 10.0 | 25.0 | 0.00 | 0.00 | 0.00 | 27 | 1016.4 |
| 20260902043213 | 72 | 195 | 10.0 | 17.0 | 0.00 | 0.00 | 0.00 | 27 | 1016.4 |
| 20260902042747 | 72 | 227 | 9.0 | 18.0 | 0.00 | 0.00 | 0.00 | 27 | 1016.3 |
| 20260902042220 | 72 | 198 | 11.0 | 18.0 | 0.00 | 0.00 | 0.00 | 27 | 1016.2 |
| 20260902041713 | 72 | 175 | 10.0 | 16.0 | 0.00 | 0.00 | 0.00 | 28 | 1016.1 |
| 20260902041248 | 73 | 180 | 10.0 | 17.0 | 0.00 | 0.00 | 0.00 | 27 | 1016.1 |
| 20260902040720 | 72 | 144 | 9.0 | 14.0 | 0.00 | 0.00 | 0.00 | 27 | 1016.2 |
| 20260902040216 | 72 | 187 | 9.0 | 16.0 | 0.00 | 0.00 | 0.00 | 28 | 1016.0 |
| 20260902035730 | 73 | 196 | 9.0 | 16.0 | 0.00 | 0.00 | 0.00 | 27 | 1016.0 |
| 20260902035224 | 72 | 192 | 9.0 | 18.0 | 0.00 | 0.00 | 0.00 | 27 | 1016.0 |
| 20260902034716 | 72 | 181 | 8.0 | 18.0 | 0.00 | 0.00 | 0.00 | 28 | 1016.0 |
| 20260902034214 | 72 | 197 | 9.0 | 17.0 | 0.00 | 0.00 | 0.00 | 28 | 1015.9 |
| 20260902033748 | 72 | 186 | 8.0 | 13.0 | 0.00 | 0.00 | 0.00 | 28 | 1015.9 |
| 20260902033241 | 73 | 198 | 7.0 | 14.0 | 0.00 | 0.00 | 0.00 | 28 | 1015.8 |
| 20260902032715 | 73 | 169 | 8.0 | 17.0 | 0.00 | 0.00 | 0.00 | 29 | 1015.7 |
| 20260902032229 | 73 | 206 | 9.0 | 17.0 | 0.00 | 0.00 | 0.00 | 28 | 1015.8 |
| 20260902031723 | 73 | 182 | 7.0 | 16.0 | 0.00 | 0.00 | 0.00 | 27 | 1015.6 |
| 20260902031217 | 73 | 169 | 8.0 | 16.0 | 0.00 | 0.00 | 0.00 | 27 | 1015.5 |
| 20260902030731 | 73 | 190 | 7.0 | 13.0 | 0.00 | 0.00 | 0.00 | 27 | 1015.4 |
| 20260902030246 | 73 | 174 | 8.0 | 13.0 | 0.00 | 0.00 | 0.00 | 27 | 1015.4 |
| 20260902025722 | 74 | 175 | 8.0 | 13.0 | 0.00 | 0.05 | 0.00 | 27 | 1015.3 |
| 20260902025216 | 74 | 186 | 7.0 | 13.0 | 0.00 | 0.05 | 0.00 | 27 | 1015.2 |
| 20260902024730 | 74 | 186 | 8.0 | 14.0 | 0.00 | 0.05 | 0.00 | 26 | 1015.2 |
| 20260902024224 | 74 | 200 | 9.0 | 18.0 | 0.00 | 0.05 | 0.00 | 26 | 1015.2 |
| 20260902023718 | 74 | 199 | 10.0 | 18.0 | 0.00 | 0.05 | 0.00 | 26 | 1015.2 |
| 20260902023232 | 74 | 206 | 9.0 | 14.0 | 0.00 | 0.05 | 0.00 | 26 | 1015.2 |
| 20260902022726 | 74 | 189 | 8.0 | 14.0 | 0.00 | 0.05 | 0.00 | 26 | 1015.1 |
| 20260902022220 | 75 | 196 | 9.0 | 15.0 | 0.00 | 0.05 | 0.00 | 25 | 1015.1 |
| 20260902021717 | 75 | 202 | 9.0 | 15.0 | 0.00 | 0.05 | 0.00 | 26 | 1015.2 |
| 20260902021232 | 75 | 207 | 10.0 | 15.0 | 0.00 | 0.05 | 0.00 | 25 | 1015.0 |
| 20260902020725 | 75 | 193 | 8.0 | 16.0 | 0.00 | 0.05 | 0.00 | 25 | 1015.0 |
| 20260902020221 | 75 | 199 | 9.0 | 16.0 | 0.00 | 0.05 | 0.00 | 25 | 1015.0 |
| 20260902015714 | 76 | 205 | 10.0 | 17.0 | 0.00 | 0.05 | 0.00 | 24 | 1015.0 |
| 20260902015228 | 76 | 195 | 10.0 | 17.0 | 0.00 | 0.05 | 0.00 | 25 | 1015.0 |
| 20260902014721 | 76 | 209 | 8.0 | 17.0 | 0.00 | 0.05 | 0.00 | 25 | 1015.0 |
| 20260902014215 | 76 | 206 | 11.0 | 15.0 | 0.00 | 0.05 | 0.00 | 24 | 1014.9 |
| 20260902013713 | 77 | 214 | 10.0 | 15.0 | 0.00 | 0.05 | 0.00 | 24 | 1015.0 |
| 20260902013227 | 77 | 221 | 9.0 | 19.0 | 0.00 | 0.05 | 0.00 | 23 | 1015.0 |
| 20260902012740 | 78 | 220 | 11.0 | 19.0 | 0.00 | 0.05 | 0.00 | 23 | 1015.0 |
| 20260902012213 | 78 | 202 | 11.0 | 20.0 | 0.00 | 0.05 | 0.00 | 23 | 1015.0 |
| 20260902011728 | 78 | 208 | 12.0 | 20.0 | 0.00 | 0.05 | 0.00 | 22 | 1015.0 |
| 20260902011222 | 79 | 223 | 12.0 | 20.0 | 0.00 | 0.05 | 0.00 | 22 | 1015.0 |
| 20260902010715 | 79 | 227 | 13.0 | 20.0 | 0.00 | 0.05 | 0.00 | 21 | 1015.1 |
| 20260902010251 | 79 | 219 | 11.0 | 19.0 | 0.00 | 0.05 | 0.00 | 21 | 1015.1 |
| 20260902005723 | 80 | 234 | 13.0 | 23.0 | 0.00 | 0.05 | 0.00 | 21 | 1015.2 |
| 20260902005221 | 80 | 227 | 11.0 | 23.0 | 0.00 | 0.05 | 0.00 | 22 | 1015.2 |
| 20260902004715 | 80 | 360 | 15.0 | 24.0 | 0.00 | 0.05 | 0.00 | 20 | 1015.2 |
| 20260902004249 | 80 | 202 | 13.0 | 25.0 | 0.00 | 0.05 | 0.00 | 20 | 1015.2 |
| 20260902003722 | 80 | 209 | 12.0 | 25.0 | 0.00 | 0.05 | 0.00 | 19 | 1015.2 |
| 20260902003216 | 81 | 225 | 15.0 | 24.0 | 0.00 | 0.05 | 0.00 | 18 | 1015.2 |
| 20260902002730 | 81 | 175 | 11.0 | 21.0 | 0.00 | 0.05 | 0.00 | 19 | 1015.2 |
| 20260902002224 | 81 | 202 | 12.0 | 21.0 | 0.00 | 0.05 | 0.00 | 18 | 1015.2 |
| 20260902001718 | 81 | 218 | 10.0 | 19.0 | 0.00 | 0.05 | 0.00 | 19 | 1015.2 |
| 20260902001218 | 81 | 217 | 11.0 | 20.0 | 0.00 | 0.05 | 0.00 | 21 | 1015.4 |
| 20260902000732 | 81 | 194 | 14.0 | 23.0 | 0.00 | 0.05 | 0.00 | 21 | 1015.4 |
| 20260902000226 | 81 | 214 | 14.0 | 23.0 | 0.00 | 0.05 | 0.00 | 21 | 1015.5 |
| 20260901235719 | 81 | 209 | 15.0 | 23.0 | 0.00 | 0.10 | 0.00 | 20 | 1015.4 |
| 20260901235233 | 81 | 193 | 16.0 | 25.0 | 0.00 | 0.10 | 0.00 | 22 | 1015.4 |
| 20260901234727 | 81 | 223 | 19.0 | 25.0 | 0.00 | 0.10 | 0.00 | 22 | 1015.5 |
| 20260901234221 | 81 | 210 | 16.0 | 26.0 | 0.00 | 0.10 | 0.00 | 21 | 1015.5 |
| 20260901233719 | 81 | 188 | 17.0 | 26.0 | 0.00 | 0.10 | 0.00 | 22 | 1015.6 |
| 20260901233233 | 81 | 200 | 15.0 | 25.0 | 0.00 | 0.10 | 0.00 | 20 | 1015.6 |
| 20260901232726 | 81 | 209 | 17.0 | 25.0 | 0.00 | 0.10 | 0.00 | 21 | 1015.7 |
| 20260901232221 | 81 | 184 | 17.0 | 25.0 | 0.00 | 0.10 | 0.00 | 21 | 1015.6 |
| 20260901231715 | 82 | 214 | 18.0 | 27.0 | 0.00 | 0.10 | 0.00 | 21 | 1015.8 |
| 20260901231230 | 82 | 200 | 12.0 | 27.0 | 0.00 | 0.10 | 0.00 | 25 | 1015.9 |
| 20260901230744 | 82 | 184 | 15.0 | 25.0 | 0.00 | 0.10 | 0.00 | 25 | 1015.8 |
| 20260901230218 | 82 | 205 | 13.0 | 22.0 | 0.00 | 0.10 | 0.00 | 25 | 1015.9 |
| 20260901225715 | 82 | 200 | 17.0 | 22.0 | 0.00 | 0.12 | 0.00 | 25 | 1015.9 |
| 20260901225230 | 81 | 212 | 9.0 | 22.0 | 0.00 | 0.12 | 0.00 | 27 | 1016.0 |
| 20260901224723 | 80 | 244 | 11.0 | 20.0 | 0.00 | 0.12 | 0.00 | 27 | 1016.1 |
| 20260901224217 | 81 | 213 | 13.0 | 20.0 | 0.00 | 0.12 | 0.00 | 26 | 1016.1 |
| 20260901223731 | 81 | 233 | 10.0 | 20.0 | 0.00 | 0.12 | 0.00 | 28 | 1016.2 |
| 20260901223225 | 81 | 217 | 13.0 | 24.0 | 0.00 | 0.12 | 0.00 | 28 | 1016.2 |
| 20260901222718 | 81 | 209 | 17.0 | 24.0 | 0.00 | 0.12 | 0.00 | 28 | 1016.4 |
| 20260901222233 | 80 | 208 | 12.0 | 21.0 | 0.00 | 0.12 | 0.00 | 27 | 1016.4 |
| 20260901221726 | 82 | 229 | 14.0 | 21.0 | 0.00 | 0.12 | 0.00 | 26 | 1016.5 |
| 20260901221224 | 82 | 216 | 14.0 | 19.0 | 0.00 | 0.12 | 0.00 | 28 | 1016.5 |
| 20260901220717 | 82 | 246 | 13.0 | 18.0 | 0.00 | 0.12 | 0.00 | 28 | 1016.6 |
| 20260901220233 | 81 | 209 | 8.0 | 17.0 | 0.00 | 0.12 | 0.00 | 30 | 1016.6 |
| 20260901215747 | 81 | 236 | 10.0 | 17.0 | 0.00 | 0.34 | 0.00 | 30 | 1016.7 |
| 20260901215221 | 79 | 224 | 10.0 | 16.0 | 0.00 | 0.34 | 0.00 | 31 | 1016.7 |
| 20260901214714 | 77 | 223 | 10.0 | 15.0 | 0.00 | 0.34 | 0.00 | 32 | 1016.9 |
| 20260901214228 | 77 | 219 | 8.0 | 18.0 | 0.00 | 0.34 | 0.00 | 31 | 1016.9 |
| 20260901213722 | 78 | 196 | 10.0 | 18.0 | 0.00 | 0.34 | 0.00 | 29 | 1017.0 |
| 20260901213221 | 79 | 195 | 8.0 | 13.0 | 0.00 | 0.34 | 0.00 | 30 | 1017.0 |
| 20260901212713 | 78 | 205 | 10.0 | 18.0 | 0.00 | 0.34 | 0.00 | 31 | 1017.1 |
| 20260901212227 | 80 | 189 | 11.0 | 18.0 | 0.00 | 0.34 | 0.00 | 30 | 1017.2 |
| 20260901211721 | 79 | 213 | 10.0 | 16.0 | 0.00 | 0.34 | 0.00 | 32 | 1017.3 |
| 20260901211215 | 79 | 215 | 9.0 | 21.0 | 0.00 | 0.34 | 0.00 | 31 | 1017.3 |
| 20260901210729 | 79 | 169 | 12.0 | 21.0 | 0.00 | 0.34 | 0.00 | 31 | 1017.4 |
| 20260901210225 | 78 | 208 | 7.0 | 15.0 | 0.00 | 0.34 | 0.00 | 36 | 1017.6 |
| 20260901205718 | 77 | 159 | 8.0 | 15.0 | 0.00 | 0.48 | 0.00 | 32 | 1017.6 |
| 20260901205216 | 79 | 129 | 6.0 | 13.0 | 0.00 | 0.48 | 0.00 | 31 | 1017.6 |
| 20260901204730 | 80 | 200 | 5.0 | 18.0 | 0.00 | 0.48 | 0.00 | 32 | 1017.8 |
| 20260901204244 | 80 | 207 | 11.0 | 18.0 | 0.00 | 0.48 | 0.00 | 31 | 1017.9 |
| 20260901203717 | 79 | 192 | 11.0 | 19.0 | 0.00 | 0.48 | 0.00 | 33 | 1017.9 |
| 20260901203230 | 79 | 225 | 11.0 | 17.0 | 0.00 | 0.48 | 0.00 | 34 | 1017.9 |
| 20260901202724 | 80 | 205 | 8.0 | 17.0 | 0.00 | 0.48 | 0.00 | 30 | 1017.9 |
| 20260901202217 | 79 | 218 | 8.0 | 12.0 | 0.00 | 0.48 | 0.00 | 33 | 1017.9 |
| 20260901201732 | 78 | 198 | 6.0 | 14.0 | 0.00 | 0.48 | 0.00 | 35 | 1018.1 |
| 20260901201231 | 78 | 202 | 7.0 | 15.0 | 0.00 | 0.48 | 0.00 | 33 | 1018.3 |
| 20260901200745 | 78 | 178 | 9.0 | 15.0 | 0.00 | 0.48 | 0.00 | 36 | 1018.3 |
| 20260901200220 | 78 | 192 | 12.0 | 15.0 | 0.00 | 0.48 | 0.00 | 34 | 1018.3 |
| 20260901195714 | 78 | 210 | 9.0 | 18.0 | 0.00 | 0.48 | 0.00 | 36 | 1018.4 |
| 20260901195228 | 77 | 180 | 7.0 | 18.0 | 0.00 | 0.48 | 0.00 | 36 | 1018.5 |
| 20260901194719 | 77 | 194 | 9.0 | 18.0 | 0.00 | 0.48 | 0.00 | 38 | 1018.6 |
| 20260901194213 | 78 | 216 | 9.0 | 17.0 | 0.00 | 0.48 | 0.00 | 37 | 1018.7 |
| 20260901193747 | 77 | 205 | 11.0 | 19.0 | 0.00 | 0.48 | 0.00 | 35 | 1018.7 |
| 20260901193221 | 77 | 198 | 11.0 | 19.0 | 0.00 | 0.48 | 0.00 | 36 | 1018.8 |
| 20260901192718 | 76 | 197 | 12.0 | 21.0 | 0.00 | 0.48 | 0.00 | 37 | 1019.0 |
| 20260901192233 | 77 | 213 | 11.0 | 19.0 | 0.00 | 0.48 | 0.00 | 34 | 1019.0 |
| 20260901191725 | 78 | 235 | 12.0 | 17.0 | 0.00 | 0.48 | 0.00 | 36 | 1019.0 |
| 20260901174235 | 73 | 247 | 4.0 | 10.0 | 0.00 | 0.48 | 0.00 | 44 | 1019.7 |
| 20260901173728 | 74 | 245 | 5.0 | 13.0 | 0.00 | 0.48 | 0.00 | 41 | 1019.7 |
| 20260901173223 | 74 | 256 | 6.0 | 13.0 | 0.00 | 0.48 | 0.00 | 44 | 1019.8 |
| 20260901172715 | 73 | 145 | 4.0 | 7.0 | 0.00 | 0.48 | 0.00 | 45 | 1019.8 |
| 20260901172249 | 73 | 130 | 2.0 | 8.0 | 0.00 | 0.48 | 0.00 | 48 | 1019.8 |
| 20260901171726 | 73 | 126 | 4.0 | 8.0 | 0.00 | 0.48 | 0.00 | 46 | 1019.8 |
| 20260901171220 | 72 | 126 | 1.0 | 4.0 | 0.00 | 0.48 | 0.00 | 44 | 1019.8 |
| 20260901170714 | 71 | 126 | 1.0 | 5.0 | 0.00 | 0.48 | 0.00 | 47 | 1019.8 |
| 20260901170229 | 70 | 126 | 3.0 | 5.0 | 0.00 | 0.48 | 0.00 | 49 | 1019.8 |
| 20260901165723 | 70 | 126 | 3.0 | 5.0 | 0.00 | 0.48 | 0.00 | 51 | 1019.8 |
| 20260901165217 | 68 | 126 | 1.0 | 5.0 | 0.00 | 0.48 | 0.00 | 51 | 1019.8 |
| 20260901164730 | 68 | 127 | 4.0 | 8.0 | 0.00 | 0.48 | 0.00 | 50 | 1019.9 |
| 20260901164227 | 67 | 126 | 4.0 | 8.0 | 0.00 | 0.48 | 0.00 | 53 | 1019.8 |
| 20260901163720 | 67 | 126 | 5.0 | 8.0 | 0.00 | 0.48 | 0.00 | 50 | 1019.8 |
| 20260901163215 | 68 | 126 | 5.0 | 8.0 | 0.00 | 0.48 | 0.00 | 51 | 1019.8 |
| 20260901162728 | 67 | 152 | 4.0 | 7.0 | 0.00 | 0.48 | 0.00 | 51 | 1019.9 |
| 20260901162222 | 67 | 158 | 3.0 | 5.0 | 0.00 | 0.48 | 0.00 | 51 | 1019.9 |
| 20260901161715 | 66 | 159 | 2.0 | 5.0 | 0.00 | 0.48 | 0.00 | 50 | 1019.8 |
| 20260901161230 | 66 | 159 | 2.0 | 5.0 | 0.00 | 0.48 | 0.00 | 50 | 1019.8 |
| 20260901160723 | 65 | 159 | 1.0 | 5.0 | 0.00 | 0.48 | 0.00 | 54 | 1019.8 |
| 20260901160239 | 64 | 158 | 0.0 | 0.0 | 0.00 | 0.48 | 0.00 | 56 | 1019.8 |
| 20260901155715 | 64 | 158 | 0.0 | 0.0 | 0.00 | 0.48 | 0.00 | 55 | 1019.8 |